STARLINK-34499, 64709

Orbit data source: Space-Track

STARLINK-34499, 64709 is a payload satellite owned by SpaceX/Seattle (US) in LEO that was launched on Sat, 28 Jun 2025 UTC via an FALCON 9 launch vehicle from the Air Force Western Test Range (AFWTR). Payload-class satellites include a variety of spacecraft equipped with specific instruments for various scientific and technological missions. These include communications satellites like Starlink; space stations such as the ISS; scientific satellites like the Hubble; Earth observation satellites from companies like Planet Labs, Umbra, and HawkEye 360; GPS; miniature CubeSats for education and research; and military/defense satellites.

Loading next visibility...
Identifier
64709, 2025-142P
Orbit
LEO
Country
Flag of USUS
Related business
Manufacturer
SpaceX/Seattle
Mission
Operational Commercial Communications
Bus & Motor
STARLINK V2MO, Unknown motor
Mass
575 kg wet, ~530 kg dry
Launch date (UTC)
2025-06-28 (1 year ago)
Launch vehicle
FALCON 9
Launch site
Air Force Western Test Range (AFWTR)
Object type
Payload
Rocket body
Debris
Shape & HBR
Box + 2 Pan, 17.7 m
Radar Cross Section
36.964 m², Large (>1 m²)

Expand to show TLE details & history
Last TLE update: 6 hours ago

TLE from 6 hours ago
0 STARLINK-34499
1 64709U 25142P   26207.62082096  .00003243  00000-0  27943-3 0  9990
2 64709  70.0022 324.0465 0003454 268.7101  91.3662 14.98334089 60275
Epoch: 2026-07-26T14:53Z
TLE epoch observation values (Epoch: 2026-07-26T14:53:58.930Z)
Latitude
-0.00009°
Longitude
156.2348°
Altitude
574.525 km
Speed
7.574 km/s
True Right ascension
21h 36m 11s
True Declination
0° 00' 00"
Sunlit
Object was in full shadow at epoch
Visualization orbit readout
Latitude
Unknown
Longitude
Unknown
Altitude
Unknown
Speed
Unknown
Apparent Right ascension
Unknown
Apparent Declination
Unknown
Sunlit
N/A
Visualization observer readout
Local Sidereal Time
09:49:30
Azimuth
Unknown
Elevation
Unknown
Doppler factor
Unknown
Orbital elements
Apogee altitude
572.391 km
Perigee altitude
567.591 km
Semi-major axis
6,948.128 km
Eccentricity
0.00035
Inclination
70.0022°
RAAN
324.0465°
Arg. of periapsis
268.7101°
True anomaly
91.40577°
Mean anomaly
91.3662°
Eccentric anomaly
91.38598°
Mean motion
3.7475 °/min
Orbital period
96.06 mins
BSTAR
0.00027943
Loading maneuver chart data...
Computing Atmospheric mass density...
Loading historical data...
Loading historical data...
Loading historical data...
Loading historical data...
Loading historical data...
Loading historical data...
Loading historical data...

Documentation

Showing up to 5 results
|